Year,Month,Day,Hour,Minute,Value (Times are PST for temperature in C)
2017,06,27,00,00,13.70
2017,06,27,00,01,13.70
2017,06,27,00,02,13.70
2017,06,27,00,03,13.70
2017,06,27,00,04,13.70
2017,06,27,00,05,13.70
2017,06,27,00,06,13.70
2017,06,27,00,07,13.70
2017,06,27,00,08,13.60
2017,06,27,00,09,13.60
2017,06,27,00,10,13.60
2017,06,27,00,11,13.60
2017,06,27,00,12,13.60
2017,06,27,00,13,13.60
2017,06,27,00,14,13.60
2017,06,27,00,15,13.50
2017,06,27,00,17,13.50
2017,06,27,00,18,13.50
2017,06,27,00,19,13.50
2017,06,27,00,21,13.40
2017,06,27,00,22,13.40
2017,06,27,00,23,13.40
2017,06,27,00,24,13.40
2017,06,27,00,26,13.30
2017,06,27,00,27,13.30
2017,06,27,00,28,13.30
2017,06,27,00,29,13.30
2017,06,27,00,31,13.30
2017,06,27,00,32,13.30
2017,06,27,00,33,13.30
2017,06,27,00,34,13.30
2017,06,27,00,36,13.20
2017,06,27,00,37,13.20
2017,06,27,00,38,13.20
2017,06,27,00,39,13.10
2017,06,27,00,41,13.00
2017,06,27,00,42,13.00
2017,06,27,00,43,13.00
2017,06,27,00,44,13.00
2017,06,27,00,46,12.90
2017,06,27,00,47,12.90
2017,06,27,00,48,12.80
2017,06,27,00,49,12.80
2017,06,27,00,51,12.80
2017,06,27,00,52,12.80
2017,06,27,00,53,12.80
2017,06,27,00,54,12.80
2017,06,27,00,56,12.80
2017,06,27,00,57,12.70
2017,06,27,00,58,12.70
2017,06,27,00,59,12.70
2017,06,27,01,01,12.60
2017,06,27,01,02,12.60
2017,06,27,01,03,12.60
2017,06,27,01,04,12.60
2017,06,27,01,06,12.50
2017,06,27,01,07,12.50
2017,06,27,01,08,12.50
2017,06,27,01,09,12.50
2017,06,27,01,11,12.50
2017,06,27,01,12,12.40
2017,06,27,01,13,12.40
2017,06,27,01,14,12.40
2017,06,27,01,16,12.40
2017,06,27,01,17,12.40
2017,06,27,01,18,12.40
2017,06,27,01,19,12.30
2017,06,27,01,21,12.30
2017,06,27,01,22,12.30
2017,06,27,01,23,12.30
2017,06,27,01,24,12.30
2017,06,27,01,26,12.30
2017,06,27,01,27,12.30
2017,06,27,01,28,12.30
2017,06,27,01,29,12.20
2017,06,27,01,31,12.20
2017,06,27,01,32,12.20
2017,06,27,01,33,12.10
2017,06,27,01,34,12.10
2017,06,27,01,36,12.10
2017,06,27,01,37,12.10
2017,06,27,01,38,12.10
2017,06,27,01,39,12.10
2017,06,27,01,40,12.10
2017,06,27,01,41,12.10
2017,06,27,01,42,12.10
2017,06,27,01,43,12.10
2017,06,27,01,44,12.10
2017,06,27,01,45,12.10
2017,06,27,01,46,12.10
2017,06,27,01,47,12.10
2017,06,27,01,48,12.00
2017,06,27,01,49,12.00
2017,06,27,01,50,12.10
2017,06,27,01,51,12.00
2017,06,27,01,52,12.00
2017,06,27,01,53,12.10
2017,06,27,01,54,12.10
2017,06,27,01,55,12.10
2017,06,27,01,56,12.10
2017,06,27,01,57,12.10
2017,06,27,01,58,12.10
2017,06,27,01,59,12.10
2017,06,27,02,00,12.10
2017,06,27,02,01,12.10
2017,06,27,02,02,12.10
2017,06,27,02,03,12.10
2017,06,27,02,04,12.20
2017,06,27,02,05,12.20
2017,06,27,02,06,12.20
2017,06,27,02,07,12.20
2017,06,27,02,08,12.20
2017,06,27,02,09,12.20
2017,06,27,02,10,12.20
2017,06,27,02,11,12.20
2017,06,27,02,12,12.20
2017,06,27,02,13,12.20
2017,06,27,02,14,12.20
2017,06,27,02,15,12.20
2017,06,27,02,16,12.20
2017,06,27,02,17,12.10
2017,06,27,02,18,12.10
2017,06,27,02,19,12.10
2017,06,27,02,20,12.10
2017,06,27,02,21,12.00
2017,06,27,02,22,12.00
2017,06,27,02,23,12.00
2017,06,27,02,24,12.00
2017,06,27,02,25,11.90
2017,06,27,02,26,11.90
2017,06,27,02,27,11.90
2017,06,27,02,28,11.90
2017,06,27,02,29,11.90
2017,06,27,02,30,11.80
2017,06,27,02,31,11.80
2017,06,27,02,32,11.80
2017,06,27,02,33,11.80
2017,06,27,02,34,11.80
2017,06,27,02,35,11.80
2017,06,27,02,36,11.80
2017,06,27,02,37,11.80
2017,06,27,02,38,11.80
2017,06,27,02,39,11.80
2017,06,27,02,40,11.70
2017,06,27,02,41,11.70
2017,06,27,02,42,11.70
2017,06,27,02,43,11.70
2017,06,27,02,44,11.70
2017,06,27,02,45,11.60
2017,06,27,02,46,11.60
2017,06,27,02,47,11.60
2017,06,27,02,48,11.60
2017,06,27,02,49,11.60
2017,06,27,02,50,11.60
2017,06,27,02,51,11.60
2017,06,27,02,52,11.60
2017,06,27,02,54,11.60
2017,06,27,02,56,11.60
2017,06,27,02,57,11.40
2017,06,27,02,58,11.40
2017,06,27,02,59,11.40
2017,06,27,03,01,11.40
2017,06,27,03,02,11.40
2017,06,27,03,03,11.40
2017,06,27,03,04,11.40
2017,06,27,03,06,11.40
2017,06,27,03,07,11.30
2017,06,27,03,08,11.30
2017,06,27,03,09,11.30
2017,06,27,03,11,11.20
2017,06,27,03,12,11.20
2017,06,27,03,13,11.20
2017,06,27,03,14,11.10
2017,06,27,03,16,11.10
2017,06,27,03,17,11.10
2017,06,27,03,18,11.10
2017,06,27,03,19,11.10
2017,06,27,03,21,11.10
2017,06,27,03,22,11.10
2017,06,27,03,23,10.90
2017,06,27,03,24,10.90
2017,06,27,03,26,10.90
2017,06,27,03,27,10.90
2017,06,27,03,28,10.90
2017,06,27,03,29,10.90
2017,06,27,03,31,10.90
2017,06,27,03,32,10.90
2017,06,27,03,33,10.90
2017,06,27,03,34,10.90
2017,06,27,03,36,10.90
2017,06,27,03,37,10.90
2017,06,27,03,38,10.90
2017,06,27,03,39,10.90
2017,06,27,03,41,10.90
2017,06,27,03,42,10.90
2017,06,27,03,43,10.90
2017,06,27,03,44,10.90
2017,06,27,03,46,10.90
2017,06,27,03,47,10.90
2017,06,27,03,48,10.90
2017,06,27,03,49,10.90
2017,06,27,03,51,10.90
2017,06,27,03,52,10.90
2017,06,27,03,53,10.90
2017,06,27,03,54,11.10
2017,06,27,03,56,11.10
2017,06,27,03,57,11.10
2017,06,27,03,58,11.10
2017,06,27,03,59,11.10
2017,06,27,04,01,11.10
2017,06,27,04,02,11.10
2017,06,27,04,03,11.10
2017,06,27,04,04,11.10
2017,06,27,04,06,11.10
2017,06,27,04,07,11.10
2017,06,27,04,08,11.10
2017,06,27,04,09,11.10
2017,06,27,04,11,11.10
2017,06,27,04,12,11.10
2017,06,27,04,13,11.10
2017,06,27,04,14,11.10
2017,06,27,04,15,11.10
2017,06,27,04,16,11.10
2017,06,27,04,17,11.10
2017,06,27,04,18,11.10
2017,06,27,04,19,11.10
2017,06,27,04,20,11.10
2017,06,27,04,21,11.10
2017,06,27,04,22,11.10
2017,06,27,04,23,11.10
2017,06,27,04,24,11.10
2017,06,27,04,25,11.10
2017,06,27,04,26,11.10
2017,06,27,04,27,11.10
2017,06,27,04,28,11.10
2017,06,27,04,29,11.10
2017,06,27,04,30,11.10
2017,06,27,04,31,11.10
2017,06,27,04,32,11.10
2017,06,27,04,33,11.10
2017,06,27,04,34,11.10
2017,06,27,04,35,11.10
2017,06,27,04,36,11.10
2017,06,27,04,37,11.10
2017,06,27,04,38,11.10
2017,06,27,04,39,11.10
2017,06,27,04,40,11.10
2017,06,27,04,41,11.10
2017,06,27,04,42,11.10
2017,06,27,04,43,11.10
2017,06,27,04,44,11.10
2017,06,27,04,45,11.10
2017,06,27,04,46,11.10
2017,06,27,04,47,11.10
2017,06,27,04,48,11.10
2017,06,27,04,49,11.10
2017,06,27,04,50,11.10
2017,06,27,04,51,11.10
2017,06,27,04,52,11.10
2017,06,27,04,53,11.10
2017,06,27,04,54,11.10
2017,06,27,04,55,11.10
2017,06,27,04,56,11.10
2017,06,27,04,57,11.10
2017,06,27,04,58,11.10
2017,06,27,04,59,11.10
2017,06,27,05,00,11.10
2017,06,27,05,01,11.10
2017,06,27,05,02,11.10
2017,06,27,05,03,11.10
2017,06,27,05,04,11.10
2017,06,27,05,05,11.20
2017,06,27,05,06,11.20
2017,06,27,05,07,11.20
2017,06,27,05,08,11.30
2017,06,27,05,09,11.30
2017,06,27,05,10,11.30
2017,06,27,05,11,11.30
2017,06,27,05,12,11.30
2017,06,27,05,13,11.30
2017,06,27,05,14,11.30
2017,06,27,05,15,11.30
2017,06,27,05,16,11.30
2017,06,27,05,17,11.30
2017,06,27,05,18,11.20
2017,06,27,05,19,11.20
2017,06,27,05,20,11.20
2017,06,27,05,21,11.20
2017,06,27,05,22,11.20
2017,06,27,05,23,11.20
2017,06,27,05,24,11.10
2017,06,27,05,25,11.10
2017,06,27,05,26,11.10
2017,06,27,05,27,11.10
2017,06,27,05,28,11.10
2017,06,27,05,29,11.10
2017,06,27,05,30,11.10
2017,06,27,05,31,11.10
2017,06,27,05,32,10.90
2017,06,27,05,34,10.90
2017,06,27,05,36,10.90
2017,06,27,05,37,10.90
2017,06,27,05,38,10.90
2017,06,27,05,39,10.90
2017,06,27,05,41,10.90
2017,06,27,05,42,10.90
2017,06,27,05,43,10.90
2017,06,27,05,44,10.90
2017,06,27,05,46,10.90
2017,06,27,05,47,10.90
2017,06,27,05,48,10.90
2017,06,27,05,49,10.90
2017,06,27,05,51,10.90
2017,06,27,05,52,11.10
2017,06,27,05,53,11.10
2017,06,27,05,54,11.10
2017,06,27,05,56,11.10
2017,06,27,05,57,11.10
2017,06,27,05,58,11.10
2017,06,27,05,59,11.10
2017,06,27,06,01,11.10
2017,06,27,06,02,11.10
2017,06,27,06,03,11.10
2017,06,27,06,04,11.10
2017,06,27,06,06,11.10
2017,06,27,06,07,11.10
2017,06,27,06,08,11.10
2017,06,27,06,09,11.10
2017,06,27,06,11,11.10
2017,06,27,06,12,11.10
2017,06,27,06,13,11.10
2017,06,27,06,14,11.10
2017,06,27,06,16,11.10
2017,06,27,06,17,11.10
2017,06,27,06,18,11.10
2017,06,27,06,19,11.10
2017,06,27,06,21,11.10
2017,06,27,06,22,11.10
2017,06,27,06,23,11.10
2017,06,27,06,24,11.10
2017,06,27,06,26,11.10
2017,06,27,06,27,11.20
2017,06,27,06,28,11.20
2017,06,27,06,29,11.10
2017,06,27,06,31,11.10
2017,06,27,06,32,11.10
2017,06,27,06,33,11.20
2017,06,27,06,34,11.20
2017,06,27,06,36,11.20
2017,06,27,06,37,11.20
2017,06,27,06,38,11.20
2017,06,27,06,39,11.20
2017,06,27,06,41,11.30
2017,06,27,06,42,11.30
2017,06,27,06,43,11.30
2017,06,27,06,44,11.30
2017,06,27,06,46,11.30
2017,06,27,06,47,11.30
2017,06,27,06,48,11.40
2017,06,27,06,49,11.40
2017,06,27,06,51,11.40
2017,06,27,06,52,11.40
2017,06,27,06,53,11.60
2017,06,27,06,54,11.60
2017,06,27,06,55,11.60
2017,06,27,06,56,11.60
2017,06,27,06,57,11.60
2017,06,27,06,58,11.60
2017,06,27,06,59,11.60
2017,06,27,07,00,11.60
2017,06,27,07,01,11.60
2017,06,27,07,02,11.60
2017,06,27,07,03,11.60
2017,06,27,07,04,11.60
2017,06,27,07,06,11.60
2017,06,27,07,07,11.60
2017,06,27,07,08,11.60
2017,06,27,07,09,11.60
2017,06,27,07,10,11.60
2017,06,27,07,11,11.60
2017,06,27,07,12,11.60
2017,06,27,07,13,11.60
2017,06,27,07,14,11.60
2017,06,27,07,15,11.60
2017,06,27,07,16,11.60
2017,06,27,07,17,11.60
2017,06,27,07,18,11.60
2017,06,27,07,19,11.60
2017,06,27,07,20,11.60
2017,06,27,07,21,11.60
2017,06,27,07,22,11.60
2017,06,27,07,23,11.60
2017,06,27,07,24,11.60
2017,06,27,07,25,11.60
2017,06,27,07,26,11.60
2017,06,27,07,27,11.60
2017,06,27,07,28,11.60
2017,06,27,07,29,11.60
2017,06,27,07,30,11.60
2017,06,27,07,31,11.60
2017,06,27,07,32,11.60
2017,06,27,07,33,11.60
2017,06,27,07,34,11.60
2017,06,27,07,35,11.60
2017,06,27,07,36,11.60
2017,06,27,07,37,11.60
2017,06,27,07,38,11.60
2017,06,27,07,39,11.60
2017,06,27,07,40,11.70
2017,06,27,07,41,11.70
2017,06,27,07,42,11.70
2017,06,27,07,43,11.70
2017,06,27,07,44,11.70
2017,06,27,07,45,11.70
2017,06,27,07,46,11.80
2017,06,27,07,47,11.80
2017,06,27,07,48,11.80
2017,06,27,07,49,11.80
2017,06,27,07,50,11.80
2017,06,27,07,51,11.80
2017,06,27,07,52,11.80
2017,06,27,07,53,11.80
2017,06,27,07,54,11.80
2017,06,27,07,55,11.80
2017,06,27,07,56,11.80
2017,06,27,07,57,11.80
2017,06,27,07,58,11.90
2017,06,27,07,59,11.90
2017,06,27,08,01,11.90
2017,06,27,08,02,11.90
2017,06,27,08,03,12.00
2017,06,27,08,04,12.00
2017,06,27,08,06,12.00
2017,06,27,08,07,12.00
2017,06,27,08,08,12.00
2017,06,27,08,09,12.00
2017,06,27,08,11,12.00
2017,06,27,08,12,12.00
2017,06,27,08,13,12.00
2017,06,27,08,14,12.00
2017,06,27,08,16,12.10
2017,06,27,08,17,12.10
2017,06,27,08,18,12.10
2017,06,27,08,19,12.20
2017,06,27,08,21,12.20
2017,06,27,08,22,12.30
2017,06,27,08,23,12.30
2017,06,27,08,24,12.30
2017,06,27,08,26,12.30
2017,06,27,08,27,12.40
2017,06,27,08,28,12.40
2017,06,27,08,29,12.40
2017,06,27,08,31,12.40
2017,06,27,08,32,12.40
2017,06,27,08,33,12.40
2017,06,27,08,34,12.40
2017,06,27,08,36,12.40
2017,06,27,08,37,12.40
2017,06,27,08,38,12.40
2017,06,27,08,39,12.40
2017,06,27,08,41,12.60
2017,06,27,08,42,12.70
2017,06,27,08,43,12.70
2017,06,27,08,44,12.80
2017,06,27,08,46,12.90
2017,06,27,08,47,12.90
2017,06,27,08,48,13.00
2017,06,27,08,49,13.10
2017,06,27,08,51,13.20
2017,06,27,08,52,13.30
2017,06,27,08,53,13.30
2017,06,27,08,54,13.40
2017,06,27,08,56,13.50
2017,06,27,08,57,13.60
2017,06,27,08,58,13.70
2017,06,27,08,59,13.70
2017,06,27,09,01,13.70
2017,06,27,09,02,13.70
2017,06,27,09,03,13.80
2017,06,27,09,04,13.90
2017,06,27,09,06,14.00
2017,06,27,09,07,14.10
2017,06,27,09,08,14.20
2017,06,27,09,09,14.20
2017,06,27,09,11,14.20
2017,06,27,09,12,14.30
2017,06,27,09,13,14.30
2017,06,27,09,14,14.40
2017,06,27,09,16,14.40
2017,06,27,09,17,14.50
2017,06,27,09,18,14.50
2017,06,27,09,19,14.50
2017,06,27,09,21,14.80
2017,06,27,09,22,14.90
2017,06,27,09,23,15.00
2017,06,27,09,24,15.10
2017,06,27,09,25,15.20
2017,06,27,09,26,15.30
2017,06,27,09,27,15.40
2017,06,27,09,28,15.50
2017,06,27,09,29,15.60
2017,06,27,09,30,15.70
2017,06,27,09,31,15.80
2017,06,27,09,32,15.80
2017,06,27,09,33,15.80
2017,06,27,09,34,15.90
2017,06,27,09,35,16.10
2017,06,27,09,36,16.10
2017,06,27,09,37,16.10
2017,06,27,09,38,15.90
2017,06,27,09,39,15.90
2017,06,27,09,40,15.90
2017,06,27,09,41,15.90
2017,06,27,09,42,15.90
2017,06,27,09,43,15.80
2017,06,27,09,44,15.80
2017,06,27,09,45,15.80
2017,06,27,09,46,15.80
2017,06,27,09,47,15.80
2017,06,27,09,48,15.80
2017,06,27,09,49,15.70
2017,06,27,09,50,15.70
2017,06,27,09,51,15.70
2017,06,27,09,52,15.60
2017,06,27,09,53,15.60
2017,06,27,09,54,15.50
2017,06,27,09,55,15.50
2017,06,27,09,56,15.50
2017,06,27,09,57,15.50
2017,06,27,09,58,15.50
2017,06,27,09,59,15.50
2017,06,27,10,00,15.50
2017,06,27,10,01,15.50
2017,06,27,10,02,15.50
2017,06,27,10,03,15.50
2017,06,27,10,04,15.50
2017,06,27,10,05,15.50
2017,06,27,10,06,15.50
2017,06,27,10,07,15.50
2017,06,27,10,08,15.50
2017,06,27,10,09,15.50
2017,06,27,10,10,15.40
2017,06,27,10,11,15.40
2017,06,27,10,12,15.40
2017,06,27,10,13,15.40
2017,06,27,10,14,15.40
2017,06,27,10,15,15.40
2017,06,27,10,16,15.40
2017,06,27,10,17,15.30
2017,06,27,10,18,15.30
2017,06,27,10,19,15.30
2017,06,27,10,20,15.30
2017,06,27,10,21,15.30
2017,06,27,10,22,15.30
2017,06,27,10,23,15.30
2017,06,27,10,24,15.20
2017,06,27,10,25,15.20
2017,06,27,10,26,15.20
2017,06,27,10,27,15.10
2017,06,27,10,28,15.10
2017,06,27,10,29,15.10
2017,06,27,10,30,15.10
2017,06,27,10,31,15.10
2017,06,27,10,32,15.10
2017,06,27,10,33,15.10
2017,06,27,10,34,15.10
2017,06,27,10,35,15.10
2017,06,27,10,36,15.10
2017,06,27,10,37,15.10
2017,06,27,10,38,15.10
2017,06,27,10,39,15.10
2017,06,27,10,40,15.00
2017,06,27,10,42,15.00
2017,06,27,10,43,15.00
2017,06,27,10,44,15.00
2017,06,27,10,46,14.90
2017,06,27,10,47,14.90
2017,06,27,10,48,14.90
2017,06,27,10,49,14.90
2017,06,27,10,51,14.80
2017,06,27,10,52,14.80
2017,06,27,10,53,14.80
2017,06,27,10,54,14.80
2017,06,27,10,56,14.90
2017,06,27,10,57,14.90
2017,06,27,10,58,14.90
2017,06,27,10,59,14.90
2017,06,27,11,01,15.00
2017,06,27,11,02,15.00
2017,06,27,11,03,15.10
2017,06,27,11,04,15.10
2017,06,27,11,06,15.10
2017,06,27,11,07,15.20
2017,06,27,11,08,15.20
2017,06,27,11,09,15.20
2017,06,27,11,11,15.30
2017,06,27,11,12,15.30
2017,06,27,11,13,15.30
2017,06,27,11,14,15.30
2017,06,27,11,16,15.40
2017,06,27,11,17,15.40
2017,06,27,11,18,15.40
2017,06,27,11,19,15.40
2017,06,27,11,21,15.50
2017,06,27,11,22,15.50
2017,06,27,11,23,15.50
2017,06,27,11,24,15.60
2017,06,27,11,26,15.70
2017,06,27,11,27,15.70
2017,06,27,11,28,15.80
2017,06,27,11,29,15.80
2017,06,27,11,31,15.80
2017,06,27,11,32,15.80
2017,06,27,11,33,15.80
2017,06,27,11,34,15.80
2017,06,27,11,36,15.90
2017,06,27,11,37,15.90
2017,06,27,11,38,16.10
2017,06,27,11,39,16.10
2017,06,27,11,41,16.10
2017,06,27,11,42,16.20
2017,06,27,11,43,16.30
2017,06,27,11,44,16.30
2017,06,27,11,46,16.40
2017,06,27,11,47,16.60
2017,06,27,11,48,16.60
2017,06,27,11,49,16.60
2017,06,27,11,51,16.70
2017,06,27,11,52,16.70
2017,06,27,11,53,16.80
2017,06,27,11,54,16.90
2017,06,27,11,56,17.00
2017,06,27,11,57,17.10
2017,06,27,11,58,17.10
2017,06,27,11,59,17.10
2017,06,27,12,01,17.20
2017,06,27,12,02,17.20
2017,06,27,12,03,17.30
2017,06,27,12,04,17.30
2017,06,27,12,06,17.30
2017,06,27,12,07,17.30
2017,06,27,12,08,17.30
2017,06,27,12,09,17.40
2017,06,27,12,11,17.40
2017,06,27,12,12,17.50
2017,06,27,12,13,17.50
2017,06,27,12,14,17.60
2017,06,27,12,15,17.60
2017,06,27,12,16,17.60
2017,06,27,12,17,17.60
2017,06,27,12,18,17.70
2017,06,27,12,19,17.70
2017,06,27,12,20,17.70
2017,06,27,12,21,17.70
2017,06,27,12,22,17.80
2017,06,27,12,23,17.80
2017,06,27,12,24,17.90
2017,06,27,12,25,17.90
2017,06,27,12,26,17.90
2017,06,27,12,27,17.90
2017,06,27,12,28,17.90
2017,06,27,12,29,17.90
2017,06,27,12,30,17.90
2017,06,27,12,31,17.90
2017,06,27,12,32,17.90
2017,06,27,12,33,18.10
2017,06,27,12,34,18.10
2017,06,27,12,35,17.90
2017,06,27,12,36,17.90
2017,06,27,12,37,17.90
2017,06,27,12,38,17.90
2017,06,27,12,39,17.90
2017,06,27,12,40,17.90
2017,06,27,12,41,17.90
2017,06,27,12,42,17.90
2017,06,27,12,43,17.90
2017,06,27,12,44,17.80
2017,06,27,12,45,17.70
2017,06,27,12,46,17.70
2017,06,27,12,47,17.70
2017,06,27,12,48,17.60
2017,06,27,12,49,17.60
2017,06,27,12,50,17.60
2017,06,27,12,51,17.60
2017,06,27,12,52,17.60
2017,06,27,12,53,17.60
2017,06,27,12,54,17.60
2017,06,27,12,55,17.70
2017,06,27,12,56,17.70
2017,06,27,12,57,17.70
2017,06,27,12,58,17.70
2017,06,27,12,59,17.80
2017,06,27,13,00,17.80
2017,06,27,13,01,17.80
2017,06,27,13,02,17.80
2017,06,27,13,03,17.90
2017,06,27,13,04,17.90
2017,06,27,13,05,17.90
2017,06,27,13,06,17.90
2017,06,27,13,07,18.10
2017,06,27,13,08,18.10
2017,06,27,13,09,18.20
2017,06,27,13,10,18.20
2017,06,27,13,11,18.20
2017,06,27,13,12,18.20
2017,06,27,13,13,18.20
2017,06,27,13,14,18.30
2017,06,27,13,15,18.30
2017,06,27,13,16,18.30
2017,06,27,13,17,18.30
2017,06,27,13,18,18.30
2017,06,27,13,19,18.30
2017,06,27,13,20,18.30
2017,06,27,13,21,18.30
2017,06,27,13,22,18.20
2017,06,27,13,23,18.20
2017,06,27,13,24,18.20
2017,06,27,13,25,18.20
2017,06,27,13,26,18.10
2017,06,27,13,27,17.90
2017,06,27,13,28,17.90
2017,06,27,13,29,17.90
2017,06,27,13,30,17.80
2017,06,27,13,31,17.70
2017,06,27,13,32,17.60
2017,06,27,13,33,17.50
2017,06,27,13,34,17.30
2017,06,27,13,36,17.10
2017,06,27,13,37,17.00
2017,06,27,13,38,16.90
2017,06,27,13,39,16.80
2017,06,27,13,41,16.70
2017,06,27,13,42,16.70
2017,06,27,13,43,16.70
2017,06,27,13,44,16.70
2017,06,27,13,46,16.60
2017,06,27,13,47,16.60
2017,06,27,13,48,16.60
2017,06,27,13,49,16.60
2017,06,27,13,51,16.60
2017,06,27,13,52,16.60
2017,06,27,13,53,16.60
2017,06,27,13,54,16.40
2017,06,27,13,56,16.40
2017,06,27,13,57,16.40
2017,06,27,13,58,16.40
2017,06,27,13,59,16.40
2017,06,27,14,01,16.40
2017,06,27,14,02,16.40
2017,06,27,14,03,16.40
2017,06,27,14,04,16.30
2017,06,27,14,06,16.30
2017,06,27,14,07,16.20
2017,06,27,14,08,16.20
2017,06,27,14,09,16.20
2017,06,27,14,11,16.30
2017,06,27,14,12,16.30
2017,06,27,14,13,16.30
2017,06,27,14,14,16.40
2017,06,27,14,16,16.40
2017,06,27,14,17,16.40
2017,06,27,14,18,16.40
2017,06,27,14,19,16.60
2017,06,27,14,21,16.70
2017,06,27,14,22,16.70
2017,06,27,14,23,16.70
2017,06,27,14,24,16.70
2017,06,27,14,26,16.70
2017,06,27,14,27,16.80
2017,06,27,14,28,16.80
2017,06,27,14,29,16.90
2017,06,27,14,31,17.00
2017,06,27,14,32,17.00
2017,06,27,14,33,17.10
2017,06,27,14,34,17.20
2017,06,27,14,36,17.30
2017,06,27,14,37,17.30
2017,06,27,14,38,17.30
2017,06,27,14,39,17.40
2017,06,27,14,40,17.40
2017,06,27,14,41,17.50
2017,06,27,14,42,17.50
2017,06,27,14,43,17.60
2017,06,27,14,44,17.60
2017,06,27,14,45,17.60
2017,06,27,14,46,17.60
2017,06,27,14,47,17.70
2017,06,27,14,48,17.70
2017,06,27,14,49,17.70
2017,06,27,14,50,17.70
2017,06,27,14,51,17.80
2017,06,27,14,52,17.80
2017,06,27,14,53,17.90
2017,06,27,14,54,17.90
2017,06,27,14,55,17.90
2017,06,27,14,56,18.10
2017,06,27,14,57,18.10
2017,06,27,14,58,18.10
2017,06,27,14,59,18.20
2017,06,27,15,00,18.20
2017,06,27,15,01,18.20
2017,06,27,15,02,18.20
2017,06,27,15,03,18.20
2017,06,27,15,04,18.20
2017,06,27,15,05,18.20
2017,06,27,15,06,18.30
2017,06,27,15,07,18.30
2017,06,27,15,08,18.30
2017,06,27,15,09,18.30
2017,06,27,15,10,18.40
2017,06,27,15,11,18.40
2017,06,27,15,12,18.40
2017,06,27,15,13,18.40
2017,06,27,15,14,18.40
2017,06,27,15,15,18.40
2017,06,27,15,16,18.40
2017,06,27,15,17,18.40
2017,06,27,15,18,18.40
2017,06,27,15,19,18.50
2017,06,27,15,20,18.50
2017,06,27,15,21,18.50
2017,06,27,15,22,18.60
2017,06,27,15,23,18.60
2017,06,27,15,24,18.60
2017,06,27,15,25,18.70
2017,06,27,15,26,18.80
2017,06,27,15,27,18.80
2017,06,27,15,28,18.90
2017,06,27,15,29,18.90
2017,06,27,15,30,18.90
2017,06,27,15,31,19.10
2017,06,27,15,32,19.10
2017,06,27,15,33,19.10
2017,06,27,15,34,19.10
2017,06,27,15,35,19.20
2017,06,27,15,36,19.20
2017,06,27,15,37,19.20
2017,06,27,15,38,19.20
2017,06,27,15,39,19.30
2017,06,27,15,40,19.30
2017,06,27,15,41,19.30
2017,06,27,15,42,19.40
2017,06,27,15,43,19.40
2017,06,27,15,44,19.40
2017,06,27,15,45,19.40
2017,06,27,15,46,19.40
2017,06,27,15,47,19.40
2017,06,27,15,48,19.40
2017,06,27,15,49,19.50
2017,06,27,15,50,19.50
2017,06,27,15,51,19.50
2017,06,27,15,52,19.50
2017,06,27,15,53,19.50
2017,06,27,15,54,19.50
2017,06,27,15,55,19.50
2017,06,27,15,56,19.50
2017,06,27,15,57,19.60
2017,06,27,15,58,19.60
2017,06,27,15,59,19.70
2017,06,27,16,00,19.80
2017,06,27,16,01,19.90
2017,06,27,16,02,19.90
2017,06,27,16,03,20.10
2017,06,27,16,04,20.10
2017,06,27,16,05,20.20
2017,06,27,16,07,20.20
2017,06,27,16,08,20.30
2017,06,27,16,09,20.30
2017,06,27,16,11,20.40
2017,06,27,16,12,20.40
2017,06,27,16,13,20.40
2017,06,27,16,14,20.50
2017,06,27,16,16,20.50
2017,06,27,16,17,20.50
2017,06,27,16,18,20.50
2017,06,27,16,19,20.50
2017,06,27,16,21,20.40
2017,06,27,16,22,20.40
2017,06,27,16,23,20.40
2017,06,27,16,24,20.40
2017,06,27,16,26,20.40
2017,06,27,16,27,20.40
2017,06,27,16,28,20.40
2017,06,27,16,29,20.40
2017,06,27,16,31,20.50
2017,06,27,16,32,20.50
2017,06,27,16,33,20.40
2017,06,27,16,34,20.40
2017,06,27,16,36,20.30
2017,06,27,16,37,20.20
2017,06,27,16,38,20.20
2017,06,27,16,39,20.10
2017,06,27,16,41,19.90
2017,06,27,16,42,19.90
2017,06,27,16,43,19.80
2017,06,27,16,44,19.80
2017,06,27,16,46,19.80
2017,06,27,16,47,19.80
2017,06,27,16,48,19.80
2017,06,27,16,49,19.80
2017,06,27,16,51,19.80
2017,06,27,16,52,19.80
2017,06,27,16,53,19.80
2017,06,27,16,54,19.80
2017,06,27,16,56,19.70
2017,06,27,16,57,19.60
2017,06,27,16,58,19.60
2017,06,27,16,59,19.60
2017,06,27,17,01,19.50
2017,06,27,17,02,19.50
2017,06,27,17,03,19.40
2017,06,27,17,04,19.40
2017,06,27,17,06,19.30
2017,06,27,17,07,19.30
2017,06,27,17,08,19.20
2017,06,27,17,09,19.10
2017,06,27,17,11,19.10
2017,06,27,17,12,19.10
2017,06,27,17,13,19.10
2017,06,27,17,14,19.10
2017,06,27,17,16,19.20
2017,06,27,17,17,19.20
2017,06,27,17,18,19.20
2017,06,27,17,19,19.20
2017,06,27,17,21,19.20
2017,06,27,17,22,19.20
2017,06,27,17,23,19.10
2017,06,27,17,24,19.10
2017,06,27,17,25,19.10
2017,06,27,17,26,19.10
2017,06,27,17,27,19.10
2017,06,27,17,28,19.10
2017,06,27,17,29,19.10
2017,06,27,17,31,19.20
2017,06,27,17,32,19.30
2017,06,27,17,33,19.40
2017,06,27,17,34,19.50
2017,06,27,17,36,19.60
2017,06,27,17,37,19.70
2017,06,27,17,38,19.80
2017,06,27,17,39,19.90
2017,06,27,17,40,19.90
2017,06,27,17,41,19.90
2017,06,27,17,42,19.90
2017,06,27,17,43,20.10
2017,06,27,17,44,20.10
2017,06,27,17,45,20.10
2017,06,27,17,46,20.10
2017,06,27,17,47,20.20
2017,06,27,17,48,20.20
2017,06,27,17,49,20.10
2017,06,27,17,50,20.10
2017,06,27,17,51,19.90
2017,06,27,17,52,19.90
2017,06,27,17,53,19.90
2017,06,27,17,54,19.90
2017,06,27,17,55,19.90
2017,06,27,17,56,19.90
2017,06,27,17,57,19.80
2017,06,27,17,58,19.90
2017,06,27,17,59,19.90
2017,06,27,18,00,19.90
2017,06,27,18,01,19.90
2017,06,27,18,02,19.90
2017,06,27,18,03,19.80
2017,06,27,18,04,19.80
2017,06,27,18,05,19.80
2017,06,27,18,06,19.80
2017,06,27,18,07,19.80
2017,06,27,18,08,19.80
2017,06,27,18,09,19.80
2017,06,27,18,10,19.80
2017,06,27,18,11,19.80
2017,06,27,18,12,19.70
2017,06,27,18,13,19.70
2017,06,27,18,14,19.60
2017,06,27,18,15,19.50
2017,06,27,18,16,19.40
2017,06,27,18,17,19.20
2017,06,27,18,18,19.10
2017,06,27,18,19,18.90
2017,06,27,18,20,18.80
2017,06,27,18,21,18.70
2017,06,27,18,22,18.70
2017,06,27,18,23,18.60
2017,06,27,18,24,18.50
2017,06,27,18,25,18.50
2017,06,27,18,26,18.40
2017,06,27,18,27,18.30
2017,06,27,18,28,18.20
2017,06,27,18,29,18.20
2017,06,27,18,30,18.20
2017,06,27,18,31,18.10
2017,06,27,18,32,17.90
2017,06,27,18,33,17.80
2017,06,27,18,34,17.70
2017,06,27,18,35,17.60
2017,06,27,18,36,17.50
2017,06,27,18,37,17.40
2017,06,27,18,38,17.30
2017,06,27,18,39,17.30
2017,06,27,18,40,17.20
2017,06,27,18,41,17.20
2017,06,27,18,42,17.10
2017,06,27,18,43,17.10
2017,06,27,18,44,17.10
2017,06,27,18,45,17.00
2017,06,27,18,46,17.00
2017,06,27,18,47,17.00
2017,06,27,18,48,17.10
2017,06,27,18,49,17.10
2017,06,27,18,51,17.10
2017,06,27,18,52,17.20
2017,06,27,18,53,17.30
2017,06,27,18,54,17.30
2017,06,27,18,56,17.50
2017,06,27,18,57,17.60
2017,06,27,18,58,17.60
2017,06,27,18,59,17.70
2017,06,27,19,01,17.80
2017,06,27,19,02,17.80
2017,06,27,19,03,17.80
2017,06,27,19,04,17.80
2017,06,27,19,06,17.80
2017,06,27,19,07,17.70
2017,06,27,19,08,17.70
2017,06,27,19,09,17.70
2017,06,27,19,11,17.60
2017,06,27,19,12,17.50
2017,06,27,19,13,17.40
2017,06,27,19,14,17.30
2017,06,27,19,16,17.10
2017,06,27,19,17,17.10
2017,06,27,19,18,17.10
2017,06,27,19,19,17.00
2017,06,27,19,21,17.00
2017,06,27,19,22,17.00
2017,06,27,19,23,17.10
2017,06,27,19,24,17.10
2017,06,27,19,26,17.20